Weather History for White Mountain, AK

Change the Weather History Date:

Saturday, September 1, 2012

  Actual Average (PAKK) Record (PAKK)
Temperature  
Mean Temperature 42 °F -  
Max Temperature 44 °F 53 °F 66 °F (2008)
Min Temperature 39 °F 41 °F 30 °F (2005)
Degree Days  
Heating Degree Days 24    
Moisture  
Dew Point 41 °F    
Average Humidity 97    
Maximum Humidity 100    
Minimum Humidity 87    
Precipitation  
Precipitation 0.13 in - - ()
Sea Level Pressure  
Sea Level Pressure 29.59 in    
Wind  
Wind Speed 9 mph ()    
Max Wind Speed 16 mph    
Max Gust Speed 22 mph    
Visibility 8.4 miles    
Events Rain    
Averages and records for this station are not official NWS values.
T = Trace of Precipitation, MM = Missing Value Source: Averaged Metar Reports

Daily Weather History Graph

Daily Weather History Graph

Search for Another Location

Airport:

Trip Planner

Search our weather history database for the weather conditions in past years. The results will help you decide how hot, cold, wet, or windy it might be!

Date:

Astronomy

Sep. 01, 2012 Rise Set
Actual Time 7:36 AM AKDT 10:08 PM AKDT
Civil Twilight 6:41 AM AKDT 11:02 PM AKDT
Nautical Twilight 5:25 AM AKDT 12:17 AM AKDT
Astronomical Twilight 3:25 AM AKDT 2:20 AM AKDT
Moon 9:27 PM AKDT (9/1) 9:50 AM AKDT (9/1)
Length of Visible Light 16h 20m
Length of Day
14h 32m
Full, 98% of the Moon is Illuminated
Sep 1
Full
Sep 8
Last Quarter
Sep 15
New
Sep 22
First Quarter
Sep 29
Full

Hourly Weather History & Observations

Time (AKDT) Temp. Windchill Dew Point Humidity Pressure Visibility Wind Dir Wind Speed Gust Speed Precip Events Conditions
12:10 AM 39.2 °F 32.0 °F 37.4 °F 93% 29.58 in 8.0 mi South 11.5 mph - 0.00 in Rain Light Rain
12:20 AM 39.2 °F 32.5 °F 37.4 °F 93% 29.58 in 8.0 mi South 10.4 mph - 0.00 in Rain Light Rain
12:31 AM 39.2 °F 32.5 °F 37.4 °F 93% 29.58 in 8.0 mi South 10.4 mph - 0.01 in Rain Light Rain
12:58 AM 39.0 °F 34.8 °F 37.9 °F 96% 29.62 in 9.0 mi South 5.8 mph - 0.01 in Rain Light Rain
1:33 AM 39.2 °F 33.0 °F 39.2 °F 100% 29.57 in 10.0 mi South 9.2 mph - 0.01 in Rain Light Rain
1:43 AM 39.2 °F 32.0 °F 39.2 °F 100% 29.57 in 10.0 mi South 11.5 mph - 0.01 in Rain Light Rain
1:58 AM 39.9 °F 32.9 °F 39.0 °F 97% 29.60 in 10.0 mi South 11.5 mph - 0.01 in Rain Light Rain
2:58 AM 39.9 °F 33.4 °F 39.0 °F 97% 29.60 in 10.0 mi South 10.4 mph - 0.00 in Rain Light Rain
3:04 AM 39.2 °F 32.5 °F 39.2 °F 100% 29.57 in 9.0 mi South 10.4 mph - 0.00 in Rain Light Rain
3:10 AM 39.2 °F 33.0 °F 39.2 °F 100% 29.56 in 10.0 mi South 9.2 mph - 0.00 in Rain Light Rain
3:18 AM 39.2 °F 33.0 °F 39.2 °F 100% 29.56 in 10.0 mi South 9.2 mph - 0.00 in Rain Light Rain
3:23 AM 39.2 °F 32.0 °F 39.2 °F 100% 29.57 in 10.0 mi South 11.5 mph - 0.00 in Rain Light Rain
3:36 AM 39.2 °F 32.5 °F 39.2 °F 100% 29.56 in 10.0 mi South 10.4 mph - 0.00 in Rain Light Rain
3:43 AM 39.2 °F 32.5 °F 39.2 °F 100% 29.56 in 10.0 mi SSE 10.4 mph - 0.00 in   Overcast
3:58 AM 39.9 °F 32.9 °F 39.9 °F 100% 29.60 in 10.0 mi SSE 11.5 mph - 0.00 in   Overcast
4:11 AM 41.0 °F 34.3 °F 39.2 °F 93% 29.56 in 8.0 mi South 11.5 mph - N/A   Overcast
4:18 AM 41.0 °F 34.7 °F 39.2 °F 93% 29.56 in 9.0 mi South 10.4 mph - N/A   Overcast
4:48 AM 41.0 °F 33.9 °F 39.2 °F 93% 29.56 in 7.0 mi South 12.7 mph - 0.00 in Rain Light Rain
4:58 AM 39.9 °F 32.5 °F 39.9 °F 100% 29.60 in 9.0 mi South 12.7 mph - 0.00 in Rain Light Rain
5:04 AM 41.0 °F 33.9 °F 39.2 °F 93% 29.56 in 10.0 mi South 12.7 mph - 0.00 in Rain Light Rain
5:23 AM 41.0 °F 33.5 °F 39.2 °F 93% 29.56 in 7.0 mi SSE 13.8 mph 19.6 mph 0.01 in Rain Light Rain
5:52 AM 41.0 °F 32.8 °F 39.2 °F 93% 29.56 in 10.0 mi South 16.1 mph 21.9 mph 0.02 in Rain Light Rain
5:56 AM 41.0 °F 33.1 °F 39.2 °F 93% 29.56 in 9.0 mi SSE 15.0 mph 21.9 mph 0.02 in Rain Light Rain
5:58 AM 41.0 °F 33.5 °F 39.9 °F 96% 29.60 in 9.0 mi SSE 13.8 mph 21.9 mph 0.02 in Rain Light Rain
6:34 AM 41.0 °F 33.9 °F 39.2 °F 93% 29.56 in 8.0 mi SSE 12.7 mph - 0.00 in Rain Light Rain
6:58 AM 41.0 °F 35.2 °F 39.9 °F 96% 29.60 in 10.0 mi SSE 9.2 mph - 0.00 in Rain Light Rain
7:02 AM 41.0 °F 34.7 °F 39.2 °F 93% 29.56 in 10.0 mi SSE 10.4 mph - 0.00 in Rain Light Rain
7:12 AM 41.0 °F 34.7 °F 41.0 °F 100% 29.56 in 9.0 mi South 10.4 mph - 0.00 in Rain Light Rain
7:18 AM 41.0 °F 35.2 °F 41.0 °F 100% 29.56 in 9.0 mi SSE 9.2 mph - 0.00 in Rain Light Rain
7:24 AM 41.0 °F 35.2 °F 41.0 °F 100% 29.56 in 9.0 mi SSE 9.2 mph - 0.00 in Rain Light Rain
7:31 AM 41.0 °F 35.8 °F 41.0 °F 100% 29.56 in 10.0 mi SSE 8.1 mph - 0.00 in Rain Light Rain
7:58 AM 41.0 °F 35.2 °F 41.0 °F 100% 29.60 in 6.0 mi SSE 9.2 mph - 0.01 in Rain Light Rain
8:38 AM 41.0 °F 35.2 °F 41.0 °F 100% 29.57 in 5.0 mi SSE 9.2 mph - 0.01 in Rain Light Rain
8:58 AM 41.0 °F 35.8 °F 41.0 °F 100% 29.61 in 5.0 mi SSE 8.1 mph - 0.02 in Rain Light Rain
9:26 AM 41.0 °F 35.2 °F 41.0 °F 100% 29.57 in 5.0 mi SSE 9.2 mph - 0.01 in Rain Light Rain
9:31 AM 41.0 °F 34.7 °F 41.0 °F 100% 29.57 in 5.0 mi South 10.4 mph - 0.01 in Rain Light Rain
9:37 AM 41.0 °F 35.8 °F 41.0 °F 100% 29.57 in 6.0 mi South 8.1 mph - 0.01 in Rain Light Rain
9:58 AM 42.1 °F 36.6 °F 41.0 °F 96% 29.61 in 7.0 mi South 9.2 mph - 0.01 in Rain Light Rain
10:47 AM 42.8 °F 39.3 °F 41.0 °F 93% 29.58 in 7.0 mi South 5.8 mph - 0.00 in Rain Light Rain
10:58 AM 42.1 °F 37.7 °F 41.0 °F 96% 29.61 in 10.0 mi South 6.9 mph - 0.00 in Rain Light Rain
11:30 AM 42.8 °F 38.0 °F 42.8 °F 100% 29.58 in 9.0 mi South 8.1 mph - 0.00 in   Overcast
11:58 AM 43.0 °F 37.2 °F 41.0 °F 93% 29.61 in 9.0 mi South 10.4 mph - 0.00 in   Overcast
12:10 PM 42.8 °F 38.0 °F 42.8 °F 100% 29.58 in 9.0 mi South 8.1 mph - N/A   Overcast
12:17 PM 44.6 °F 39.7 °F 41.0 °F 87% 29.58 in 10.0 mi South 9.2 mph - N/A   Overcast
12:58 PM 44.1 °F 39.5 °F 41.0 °F 89% 29.62 in 9.0 mi SSE 8.1 mph - 0.00 in Rain Light Rain
1:56 PM 42.8 °F 37.5 °F 42.8 °F 100% 29.59 in 9.0 mi SSE 9.2 mph - 0.01 in   Overcast
1:58 PM 43.0 °F 37.7 °F 42.1 °F 97% 29.62 in 10.0 mi SSE 9.2 mph - 0.01 in   Overcast
2:17 PM 44.6 °F 39.2 °F 42.8 °F 93% 29.59 in 9.0 mi South 10.4 mph - N/A   Overcast
2:38 PM 42.8 °F 38.0 °F 41.0 °F 93% 29.59 in 5.0 mi SSW 8.1 mph - 0.00 in Rain Light Rain
2:51 PM 42.8 °F 37.0 °F 42.8 °F 100% 29.59 in 6.0 mi SSE 10.4 mph - 0.01 in Rain Light Rain
2:58 PM 43.0 °F 37.2 °F 42.1 °F 97% 29.63 in 9.0 mi SSE 10.4 mph - 0.01 in Rain Light Rain
3:06 PM 42.8 °F 37.5 °F 42.8 °F 100% 29.59 in 10.0 mi SSE 9.2 mph - 0.00 in Rain Light Rain
3:39 PM 42.8 °F 38.0 °F 42.8 °F 100% 29.60 in 10.0 mi SSW 8.1 mph - 0.00 in Rain Light Rain
3:52 PM 42.8 °F 38.6 °F 41.0 °F 93% 29.60 in 10.0 mi South 6.9 mph - 0.00 in Rain Light Rain
3:58 PM 43.0 °F 37.7 °F 41.0 °F 93% 29.63 in 9.0 mi SSW 9.2 mph - 0.00 in Rain Light Rain
4:37 PM 42.8 °F 39.3 °F 41.0 °F 93% 29.60 in 9.0 mi South 5.8 mph - 0.00 in Rain Light Rain
4:58 PM 43.0 °F 39.5 °F 41.0 °F 93% 29.63 in 7.0 mi South 5.8 mph - 0.00 in Rain Light Rain
5:43 PM 44.6 °F 41.4 °F 42.8 °F 93% 29.60 in 8.0 mi SSE 5.8 mph - 0.01 in Rain Light Rain
5:58 PM 43.0 °F 38.8 °F 42.1 °F 97% 29.63 in 9.0 mi SE 6.9 mph - 0.01 in Rain Light Rain
6:06 PM 42.8 °F 38.6 °F 42.8 °F 100% 29.60 in 10.0 mi SSE 6.9 mph - 0.00 in Rain Light Rain
6:25 PM 42.8 °F 39.3 °F 42.8 °F 100% 29.60 in 1.8 mi SSE 5.8 mph - 0.01 in Rain Light Rain
6:33 PM 42.8 °F 38.6 °F 42.8 °F 100% 29.60 in 2.5 mi SSE 6.9 mph - 0.01 in Rain Light Rain
6:38 PM 42.8 °F 39.3 °F 42.8 °F 100% 29.60 in 3.0 mi SSE 5.8 mph - 0.02 in Rain Light Rain
6:44 PM 42.8 °F 38.6 °F 42.8 °F 100% 29.60 in 4.0 mi SSE 6.9 mph - 0.02 in Rain Light Rain
6:58 PM 44.1 °F 38.1 °F 42.1 °F 93% 29.64 in 7.0 mi SE 11.5 mph - 0.02 in Rain Light Rain
7:09 PM 42.8 °F 37.0 °F 42.8 °F 100% 29.61 in 7.0 mi SE 10.4 mph - 0.00 in Rain Light Rain
7:20 PM 42.8 °F 38.0 °F 42.8 °F 100% 29.61 in 10.0 mi SSE 8.1 mph - 0.00 in Rain Light Rain
7:49 PM 42.8 °F 39.3 °F 42.8 °F 100% 29.61 in 10.0 mi SSE 5.8 mph - 0.00 in Rain Light Rain
8:58 PM 43.0 °F 40.3 °F 42.1 °F 97% 29.64 in 10.0 mi ESE 4.6 mph - 0.00 in   Scattered Clouds
9:58 PM 42.1 °F 38.4 °F 42.1 °F 100% 29.64 in 10.0 mi East 5.8 mph - N/A   Mostly Cloudy
10:58 PM 41.0 °F 36.4 °F 39.9 °F 96% 29.64 in 10.0 mi East 6.9 mph - N/A   Overcast
11:35 PM 41.0 °F 35.8 °F 39.2 °F 93% 29.61 in 10.0 mi East 8.1 mph - N/A   Overcast
11:39 PM 41.0 °F 35.8 °F 39.2 °F 93% 29.61 in 10.0 mi East 8.1 mph - N/A   Overcast
11:58 PM 41.0 °F 36.4 °F 39.9 °F 96% 29.64 in 10.0 mi East 6.9 mph - N/A   Overcast